Simultaneous Nadir Overpasses (SNOs) Predictions

Prediction of SNOs between LANDSAT-8 and METOP-B Satellite Orbit:

Table of predicted SNOs for the next 14.0 days since TLE Epoch: 12/14/2019
Index Date (LANDSAT-8) Time (LANDSAT-8) Lat,Lon (LANDSAT-8) SZA (LANDSAT-8 ) Date (METOP-B) Time (METOP-B) Lat,Lon (METOP-B) SZA (METOP-B ) Distance(km) Time Diff (sec)
1 12/14/2019 12:40:44 81.11, 29.43 106.34 12/14/2019 12:40:31 81.10, 29.42 106.34 0.47 13
2 12/14/2019 13:30:10 -81.13,-162.62 73.61 12/14/2019 13:31:10 -81.12,-162.68 73.60 1.16 60
3 12/17/2019 08:14:59 81.10, 95.79 106.44 12/17/2019 08:14:55 81.10, 95.89 106.45 1.85 4
4 12/17/2019 09:04:25 -81.12, -96.23 73.52 12/17/2019 09:05:34 -81.12, -96.18 73.48 0.82 69
5 12/20/2019 02:59:48 -81.09, -5.53 73.55 12/20/2019 02:58:39 -81.09, -5.35 73.56 3.10 69
6 12/20/2019 03:49:14 81.09, 162.12 106.46 12/20/2019 03:49:20 81.09, 161.97 106.45 2.65 6
7 12/22/2019 22:34:02 -81.09, 60.80 73.58 12/22/2019 22:33:03 -81.08, 60.73 73.61 1.34 59
8 12/22/2019 23:23:27 81.11,-131.21 106.48 12/22/2019 23:23:42 81.11,-131.23 106.48 0.44 15
9 12/25/2019 18:08:17 -81.08, 127.11 73.68 12/25/2019 18:07:27 -81.08, 127.17 73.69 1.15 50




NCC Satellite Simultaneous Nadir Overpasses (SNOs) Prediction Service
